Total_Precipitation_Accumulation
0.00 0.01 0.06 0.17 0.38 0.67 0.82 0.49 0.38 0.29 0.26 0.36 0.39 0.35 0.38 0.48 0.55 0.66 0.26 0.05 0.02 0.01 0.02 0.05 0.08 0.06 0.05 0.06 0.08 0.10 0.10 0.11 0.10 0.08 0.07 0.05 0.03 0.03 0.03 0.04 0.03 0.04 0.04 0.04 0.04 0.03 0.03 0.03 0.03
0.00 0.01 0.06 0.15 0.45 1.09 1.09 0.52 0.30 0.20 0.28 0.42 0.53 0.48 0.37 0.36 0.25 0.17 0.10 0.06 0.02 0.01 0.02 0.03 0.07 0.08 0.06 0.05 0.07 0.09 0.10 0.11 0.09 0.08 0.07 0.06 0.05 0.04 0.04 0.04 0.04 0.05 0.05 0.04 0.03 0.03 0.03 0.02 0.02
0.00 0.01 0.04 0.12 0.36 0.73 0.79 0.43 0.21 0.19 0.27 0.46 0.53 0.39 0.32 0.32 0.18 0.09 0.07 0.05 0.04 0.03 0.02 0.03 0.05 0.06 0.07 0.06 0.07 0.08 0.08 0.09 0.08 0.08 0.06 0.06 0.06 0.06 0.05 0.04 0.04 0.06 0.06 0.04 0.03 0.02 0.02 0.02 0.02
0.00 0.01 0.02 0.07 0.18 0.31 0.31 0.26 0.20 0.20 0.31 0.35 0.43 0.38 0.24 0.26 0.21 0.12 0.09 0.07 0.05 0.04 0.03 0.04 0.06 0.06 0.06 0.06 0.06 0.06 0.07 0.07 0.07 0.06 0.06 0.06 0.06 0.06 0.06 0.06 0.05 0.05 0.06 0.05 0.04 0.03 0.02 0.02 0.02
0.00 0.00 0.02 0.05 0.13 0.21 0.23 0.24 0.25 0.27 0.32 0.44 0.50 0.47 0.33 0.24 0.20 0.21 0.23 0.13 0.06 0.04 0.03 0.04 0.07 0.08 0.08 0.07 0.07 0.07 0.07 0.07 0.07 0.07 0.07 0.06 0.07 0.08 0.07 0.07 0.05 0.06 0.07 0.06 0.04 0.03 0.03 0.03 0.03
0.00 0.00 0.01 0.03 0.08 0.14 0.21 0.22 0.24 0.30 0.43 0.61 0.52 0.42 0.37 0.30 0.29 0.29 0.25 0.22 0.12 0.07 0.05 0.06 0.09 0.10 0.10 0.10 0.10 0.10 0.09 0.09 0.08 0.07 0.07 0.07 0.08 0.09 0.08 0.07 0.07 0.09 0.10 0.09 0.06 0.04 0.04 0.04 0.04
0.00 0.00 0.01 0.02 0.06 0.09 0.13 0.21 0.31 0.34 0.46 0.60 0.46 0.36 0.46 0.51 0.44 0.37 0.29 0.24 0.17 0.16 0.16 0.09 0.07 0.08 0.10 0.14 0.16 0.14 0.12 0.11 0.10 0.08 0.08 0.08 0.09 0.11 0.10 0.11 0.11 0.12 0.14 0.13 0.11 0.07 0.06 0.05 0.05
0.00 0.00 0.00 0.00 0.02 0.07 0.07 0.13 0.23 0.30 0.44 0.46 0.41 0.49 0.75 0.66 0.37 0.34 0.33 0.25 0.22 0.27 0.25 0.16 0.12 0.14 0.12 0.13 0.16 0.18 0.16 0.14 0.12 0.12 0.11 0.11 0.13 0.16 0.17 0.16 0.18 0.19 0.21 0.21 0.20 0.16 0.14 0.14 0.14
0.00 0.00 0.00 0.00 0.01 0.03 0.07 0.14 0.20 0.28 0.38 0.46 0.57 0.64 0.66 0.53 0.36 0.38 0.39 0.35 0.31 0.32 0.26 0.17 0.15 0.16 0.18 0.15 0.14 0.17 0.18 0.18 0.16 0.18 0.18 0.21 0.30 0.44 0.49 0.49 0.52 0.50 0.47 0.45 0.40 0.39 0.38 0.32 0.23
0.00 0.00 0.00 0.00 0.01 0.02 0.05 0.15 0.27 0.34 0.44 0.64 0.92 0.94 0.66 0.56 0.47 0.46 0.55 0.44 0.33 0.33 0.25 0.21 0.18 0.20 0.19 0.18 0.25 0.28 0.29 0.32 0.30 0.42 0.48 0.56 0.69 0.71 0.59 0.78 0.88 0.89 0.95 0.87 0.81 0.96 0.82 0.60 0.51
0.00 0.00 0.00 0.00 0.00 0.02 0.06 0.12 0.19 0.31 0.63 1.05 1.14 0.97 0.75 0.79 0.73 0.63 0.75 0.65 0.42 0.32 0.31 0.32 0.25 0.26 0.29 0.37 0.36 0.39 0.48 0.64 0.61 0.64 0.78 0.96 0.92 0.76 0.68 0.82 1.08 1.25 1.39 1.34 1.44 1.53 1.14 1.08 1.19
0.00 0.00 0.00 0.00 0.01 0.02 0.03 0.06 0.12 0.33 0.79 0.93 0.88 0.75 0.75 0.94 0.89 0.87 0.97 0.83 0.72 0.55 0.52 0.52 0.45 0.50 0.53 0.55 0.56 0.54 0.62 0.80 0.93 1.10 1.16 1.32 1.34 1.18 1.03 1.06 1.26 1.44 1.60 1.91 1.95 1.83 1.67 1.63 1.52
0.00 0.00 0.00 0.00 0.01 0.05 0.03 0.07 0.23 0.50 0.72 0.61 0.48 0.65 0.73 0.97 1.19 1.31 1.26 1.00 0.98 0.90 0.98 0.99 0.83 0.88 0.97 1.03 1.04 0.91 0.99 1.10 1.20 1.42 1.55 1.66 1.81 1.73 1.63 1.53 1.49 1.40 1.58 1.91 2.12 2.04 2.03 1.97 1.86
0.00 0.00 0.00 0.01 0.01 0.03 0.06 0.14 0.33 0.55 0.51 0.47 0.58 0.88 1.12 1.03 1.28 1.56 1.43 1.24 1.20 1.23 1.38 1.44 1.41 1.50 1.53 1.50 1.53 1.51 1.32 1.32 1.34 1.45 1.52 1.72 1.93 2.14 2.20 2.08 1.90 1.61 1.59 1.71 2.05 2.16 2.29 2.18 2.04
0.00 0.01 0.04 0.05 0.05 0.05 0.08 0.31 0.45 0.52 0.43 0.50 0.70 0.92 1.21 1.15 1.26 1.44 1.48 1.50 1.59 1.79 1.81 1.83 1.95 2.09 2.09 1.98 1.82 1.65 1.54 1.51 1.64 1.68 1.66 1.85 2.09 2.28 2.28 2.04 1.71 1.52 1.61 1.71 1.67 1.72 2.02 1.81 1.67
0.01 0.04 0.13 0.14 0.08 0.07 0.13 0.52 0.63 0.57 0.69 0.79 0.95 0.99 1.11 1.16 1.18 1.31 1.56 1.86 2.02 2.24 2.20 2.20 2.18 2.35 2.41 2.34 2.24 1.99 1.79 1.85 1.78 1.67 1.65 1.73 1.93 1.96 1.97 1.62 1.27 1.35 1.56 1.64 1.60 1.56 1.66 1.65 1.68
0.03 0.06 0.12 0.18 0.11 0.09 0.18 0.71 0.74 0.53 0.76 1.00 0.92 0.96 1.05 1.21 1.23 1.29 1.65 2.02 2.28 2.60 2.73 2.81 2.88 2.77 2.72 2.63 2.53 2.33 2.12 1.89 1.65 1.63 1.59 1.48 1.40 1.42 1.51 1.23 1.11 1.25 1.40 1.43 1.40 1.54 1.63 1.51 1.58
0.05 0.08 0.13 0.20 0.14 0.12 0.24 0.55 0.63 0.63 0.77 0.91 0.88 0.88 0.93 1.09 1.31 1.40 1.66 1.96 2.27 2.69 3.05 3.27 3.27 3.03 2.72 2.42 2.10 2.02 1.88 1.76 1.63 1.54 1.42 1.23 1.11 1.12 1.29 1.18 1.08 1.21 1.29 1.25 1.39 1.50 1.58 1.36 1.34
0.06 0.09 0.17 0.22 0.15 0.15 0.30 0.47 0.58 0.66 0.87 0.98 0.95 0.90 0.88 1.10 1.35 1.52 1.73 1.94 2.26 2.66 3.08 3.21 3.16 2.65 2.16 1.92 1.69 1.57 1.43 1.34 1.36 1.33 1.24 1.18 1.08 1.06 1.20 1.10 1.02 1.02 1.03 1.00 1.15 1.27 1.28 1.06 1.26
0.09 0.11 0.19 0.20 0.13 0.14 0.30 0.55 0.70 0.75 0.71 0.78 0.77 0.81 0.82 1.13 1.45 1.79 2.16 2.23 2.12 2.37 2.89 2.87 2.41 1.90 1.57 1.40 1.26 1.14 1.09 1.01 0.96 0.89 0.86 0.82 0.83 0.88 0.95 0.94 0.85 0.81 0.83 0.82 0.90 1.04 1.03 0.92 1.19
0.12 0.14 0.17 0.15 0.14 0.20 0.36 0.66 0.90 0.82 0.58 0.54 0.57 0.61 0.75 1.05 1.42 1.74 2.06 2.04 1.85 2.05 2.08 1.75 1.45 1.17 0.94 0.82 0.77 0.77 0.74 0.68 0.60 0.53 0.52 0.55 0.59 0.60 0.59 0.61 0.65 0.70 0.70 0.72 0.78 0.94 1.05 0.93 0.96
0.08 0.07 0.07 0.06 0.12 0.26 0.40 0.86 1.15 0.96 0.68 0.55 0.53 0.61 0.68 0.74 0.90 1.13 1.27 1.35 1.39 1.40 1.26 1.09 0.96 0.81 0.71 0.70 0.64 0.67 0.59 0.53 0.47 0.40 0.40 0.42 0.44 0.43 0.41 0.44 0.54 0.61 0.67 0.71 0.66 0.71 0.87 0.93 0.85
0.05 0.04 0.04 0.08 0.11 0.24 0.43 0.71 1.00 1.02 0.89 0.73 0.62 0.61 0.54 0.49 0.53 0.62 0.66 0.72 0.78 0.80 0.78 0.68 0.73 0.78 0.70 0.66 0.61 0.57 0.48 0.40 0.35 0.36 0.40 0.44 0.44 0.42 0.39 0.38 0.40 0.50 0.58 0.64 0.66 0.68 0.74 0.81 0.79
0.04 0.05 0.12 0.23 0.34 0.60 0.56 0.57 0.85 0.83 0.78 0.75 0.62 0.47 0.37 0.33 0.37 0.42 0.41 0.39 0.39 0.38 0.42 0.43 0.51 0.59 0.54 0.52 0.50 0.48 0.45 0.42 0.37 0.35 0.35 0.35 0.38 0.39 0.39 0.38 0.41 0.43 0.44 0.47 0.55 0.61 0.66 0.72 0.74
0.05 0.08 0.31 0.65 0.92 0.96 0.54 0.52 0.71 0.62 0.67 0.71 0.51 0.30 0.24 0.25 0.25 0.28 0.29 0.27 0.24 0.23 0.24 0.25 0.29 0.37 0.36 0.36 0.41 0.41 0.41 0.39 0.35 0.30 0.28 0.28 0.28 0.32 0.36 0.38 0.43 0.48 0.49 0.49 0.51 0.57 0.64 0.70 0.76
0.06 0.06 0.17 0.29 0.41 0.50 0.49 0.84 0.80 0.48 0.49 0.41 0.22 0.12 0.12 0.20 0.18 0.16 0.16 0.17 0.15 0.13 0.13 0.14 0.14 0.16 0.16 0.19 0.24 0.25 0.28 0.27 0.27 0.35 0.31 0.26 0.25 0.28 0.34 0.39 0.43 0.46 0.52 0.54 0.61 0.65 0.70 0.75 0.78
0.05 0.04 0.05 0.07 0.12 0.30 0.55 0.80 0.58 0.33 0.33 0.20 0.11 0.06 0.05 0.07 0.09 0.08 0.08 0.08 0.08 0.07 0.07 0.08 0.10 0.12 0.12 0.11 0.13 0.14 0.18 0.21 0.27 0.33 0.30 0.25 0.25 0.23 0.25 0.32 0.43 0.45 0.48 0.55 0.64 0.69 0.74 0.80 0.85
0.05 0.04 0.04 0.04 0.10 0.21 0.41 0.69 0.66 0.44 0.34 0.18 0.09 0.04 0.03 0.03 0.03 0.03 0.04 0.04 0.04 0.04 0.05 0.05 0.08 0.09 0.08 0.07 0.07 0.08 0.13 0.21 0.29 0.32 0.27 0.23 0.21 0.20 0.21 0.25 0.33 0.36 0.40 0.49 0.62 0.70 0.77 0.89 0.97
0.07 0.07 0.06 0.06 0.08 0.12 0.29 0.46 0.38 0.35 0.23 0.12 0.06 0.04 0.02 0.01 0.01 0.01 0.01 0.02 0.03 0.03 0.03 0.04 0.06 0.07 0.05 0.05 0.06 0.11 0.19 0.22 0.29 0.43 0.41 0.25 0.20 0.18 0.17 0.18 0.20 0.21 0.24 0.33 0.50 0.70 0.82 0.93 0.98
0.08 0.07 0.07 0.10 0.10 0.08 0.14 0.26 0.22 0.21 0.13 0.08 0.05 0.02 0.01 0.01 0.01 0.00 0.00 0.01 0.01 0.02 0.02 0.02 0.03 0.04 0.03 0.03 0.05 0.08 0.17 0.21 0.25 0.32 0.34 0.27 0.21 0.18 0.16 0.15 0.14 0.13 0.16 0.25 0.42 0.59 0.75 0.90 1.02